"Time","Temp","Dewpoint","Humidity","Pressure","Direction","Speed","Gust","Precip","PrecipRate"
"00:04:57","71.7","70.5","96","29.84","348","0","0","0.00","0.00"
"00:09:58","71.5","70.3","96","29.84","348","0","0","0.00","0.00"
"00:14:59","71.3","70.1","96","29.84","348","0","0","0.00","0.00"
"00:19:58","71.2","70","96","29.84","348","0","0","0.00","0.00"
"00:24:56","71.1","69.9","96","29.84","348","0","0","0.00","0.00"
"00:29:58","70.9","69.7","96","29.84","348","0","0","0.00","0.00"
"00:34:56","70.6","69.4","96","29.84","348","0","0","0.00","0.00"
"00:39:59","70.4","69.2","96","29.84","348","0","0","0.00","0.00"
"00:44:57","70.2","69","96","29.84","348","0","0","0.00","0.00"
"00:49:59","70","68.8","96","29.84","348","0","0","0.00","0.00"
"00:54:57","69.8","68.6","96","29.84","348","0","0","0.00","0.00"
"00:59:59","69.6","68.4","96","29.84","348","0","0","0.00","0.00"
"01:04:57","69.4","68.2","96","29.84","348","0","0","0.00","0.00"
"01:09:57","68.9","67.7","96","29.84","348","0","0","0.00","0.00"
"01:14:56","68.5","67.3","96","29.84","348","0","0","0.00","0.00"
"01:19:58","68.3","67.1","96","29.84","348","0","0","0.00","0.00"
"01:24:56","68.1","66.9","96","29.84","348","0","0","0.00","0.00"
"01:29:58","68","66.8","96","29.85","348","0","0","0.00","0.00"
"01:34:57","67.7","66.5","96","29.85","348","0","0","0.00","0.00"
"01:39:57","67.6","66.4","96","29.85","348","0","0","0.00","0.00"
"01:44:58","67.4","66.2","96","29.85","348","0","0","0.00","0.00"
"01:49:57","67.2","66","96","29.85","348","0","0","0.00","0.00"
"01:54:59","67.1","65.9","96","29.85","348","0","0","0.00","0.00"
"01:59:57","67.1","65.9","96","29.86","348","0","0","0.00","0.00"
"02:04:58","66.9","65.7","96","29.86","348","0","0","0.00","0.00"
"02:09:59","66.8","65.6","96","29.86","348","0.1","2.4","0.00","0.00"
"02:14:57","66.6","65.4","96","29.86","348","0","1.2","0.00","0.00"
"02:19:59","66.5","65.3","96","29.86","348","1.2","4.8","0.00","0.00"
"02:24:57","66.5","65.3","96","29.86","349","0.6","3.6","0.00","0.00"
"02:29:59","66.5","65","95.1","29.86","348","0.3","2.4","0.00","0.00"
"02:34:57","66.5","64.6","93.7","29.86","347","0.8","3.6","0.00","0.00"
"02:39:59","66.8","64.5","92.5","29.86","334","1.6","4.8","0.00","0.00"
"02:44:57","67.1","64.6","91.7","29.86","329","0.9","3.6","0.00","0.00"
"02:49:59","67.4","64.6","90.8","29.86","316","0.6","3.6","0.00","0.00"
"02:54:57","67.7","64.6","89.8","29.86","316","1.4","3.6","0.00","0.00"
"02:59:59","68.1","65","89.6","29.87","316","0.5","3.5","0.00","0.00"
"03:04:57","68.3","64.9","89.1","29.87","316","0.6","3.6","0.00","0.00"
"03:09:57","68.3","64.8","88.5","29.87","316","1.3","3.6","0.00","0.00"
"03:14:59","68.5","64.8","88.2","29.87","8","1","3.6","0.00","0.00"
"03:19:57","68.6","64.9","88","29.87","15","0.2","2.3","0.00","0.00"
"03:24:57","68.5","64.6","87.2","29.87","14","0.3","2.4","0.00","0.00"
"03:29:59","68.6","64.5","86.8","29.87","13","0.4","2.4","0.00","0.00"
"03:34:56","68.7","64.6","86.8","29.87","13","0.5","2.4","0.00","0.00"
"03:39:58","68.7","64.5","86.5","29.87","13","0.3","2.4","0.00","0.00"
"03:44:58","68.7","64.6","86.8","29.87","11","0.7","4.8","0.00","0.00"
"03:49:56","68.6","64.6","86.9","29.87","11","0.4","3.6","0.00","0.00"
"03:54:56","68.6","64.5","86.9","29.87","11","0.2","3.5","0.00","0.00"
"03:59:58","68.4","64.1","86.3","29.87","11","0.4","2.4","0.00","0.00"
"04:04:59","68.3","64.3","87","29.87","11","0.2","1.2","0.00","0.00"
"04:09:59","68.1","64.1","87","29.87","11","0.1","1.2","0.00","0.00"
"04:14:57","67.9","64.1","87.7","29.88","11","0","1.2","0.00","0.00"
"04:19:58","67.7","64.1","88.5","29.88","11","0","0","0.00","0.00"
"04:24:59","67.3","64.3","90.2","29.88","11","0.1","1.2","0.00","0.00"
"04:29:56","67","64.5","91.6","29.88","11","0","0","0.00","0.00"
"04:34:57","66.7","64.3","92","29.88","11","0","0","0.00","0.00"
"04:39:56","66.4","64.3","92.7","29.88","11","0","0","0.00","0.00"
"04:44:56","66.2","64.1","93","29.89","11","0","0","0.00","0.00"
"04:49:58","65.9","63.8","93","29.89","11","0","0","0.00","0.00"
"04:54:59","65.7","63.6","93.2","29.89","11","0","1.2","0.00","0.00"
"04:59:56","65.5","63.7","94","29.89","11","0","1.2","0.00","0.00"
"05:04:57","65.3","63.5","94","29.89","11","0","1.2","0.00","0.00"
"05:09:58","65.1","63.3","94","29.89","11","0","0","0.00","0.00"
"05:14:57","65","63.2","94","29.89","11","0","0","0.00","0.00"
"05:19:58","64.8","63.3","94.9","29.89","11","0","0","0.00","0.00"
"05:24:59","64.7","63.2","95","29.89","11","0","0","0.00","0.00"
"05:29:56","64.5","63","95","29.90","11","0","0","0.00","0.00"
"05:34:57","64.4","62.9","95","29.90","11","0","0","0.00","0.00"
"05:39:59","64.3","62.8","95.1","29.90","11","0","0","0.00","0.00"
"05:44:56","64.2","62.9","95.5","29.91","11","0","0","0.00","0.00"
"05:49:57","64.1","62.6","95","29.91","11","0","0","0.00","0.00"
"05:54:58","63.9","62.6","95.6","29.91","11","0","0","0.00","0.00"
"05:59:59","63.8","62.6","96","29.91","11","0","0","0.00","0.00"
"06:04:57","63.7","62.5","96","29.91","11","0","0","0.00","0.00"
"06:09:57","63.7","62.5","96","29.91","11","0","0","0.00","0.00"
"06:14:58","63.6","62.4","96","29.91","11","0","0","0.00","0.00"
"06:19:58","63.6","62.4","96","29.91","11","0","0","0.00","0.00"
"06:24:58","63.5","62.3","96","29.91","11","0","0","0.00","0.00"
"06:29:58","63.4","62.2","96","29.92","11","0","0","0.00","0.00"
"06:34:59","63.2","62","96","29.92","11","0","0","0.00","0.00"
"06:39:58","63.2","62","96","29.92","11","0","0","0.00","0.00"
"06:44:59","63.2","62","96","29.93","11","0","0","0.00","0.00"
"06:49:57","63.2","62","96","29.93","11","0","0","0.00","0.00"
"06:54:59","63.2","62","96","29.93","11","0","0","0.00","0.00"
"06:59:57","63.2","62","96","29.93","11","0","0","0.00","0.00"
"07:04:58","63.3","62.2","96.4","29.93","11","0","0","0.00","0.00"
"07:09:58","63.4","62.5","97","29.93","11","0","1.2","0.00","0.00"
"07:14:56","63.8","62.9","97","29.94","10","0","0","0.00","0.00"
"07:19:57","64.2","63.3","97","29.94","10","0","0","0.00","0.00"
"07:24:57","64.6","63.7","97","29.94","10","0","0","0.00","0.00"
"07:29:58","65","64.1","97","29.94","10","0","0","0.00","0.00"
"07:34:58","65.4","64.4","96.6","29.94","10","0","1.2","0.00","0.00"
"07:39:57","65.8","64.6","96","29.94","10","0","0","0.00","0.00"
"07:44:57","66.1","64.9","96","29.94","10","0","0","0.00","0.00"
"07:49:58","66.5","65.3","96","29.94","10","0","0","0.00","0.00"
"07:54:58","66.9","65.7","96","29.94","10","0","0","0.00","0.00"
"07:59:56","67.3","65.6","94.4","29.94","10","0.3","2.4","0.00","0.00"
"08:04:57","67.9","65.6","92.2","29.94","10","0.7","3.6","0.00","0.00"
"08:09:57","69","65.6","89.2","29.94","10","0.5","3.5","0.00","0.00"
"08:14:59","69.8","66.3","88.7","29.94","10","0.1","1.2","0.00","0.00"
"08:19:56","70.5","66.2","86.1","29.94","10","0.9","3.6","0.00","0.00"
"08:24:57","71.3","66.1","83.8","29.94","10","0.2","2.3","0.00","0.00"
"08:29:59","71.9","66.3","82.5","29.95","3","0.9","4.8","0.00","0.00"
"08:34:57","72.5","66","80","29.95","352","1.3","7.2","0.00","0.00"
"08:39:59","73","65.8","78.1","29.95","338","2.1","6.9","0.00","0.00"
"08:44:57","73.4","65.7","77","29.95","336","0.9","2.4","0.00","0.00"
"08:49:59","73.7","65.8","76.4","29.95","341","1.8","7.2","0.00","0.00"
"08:54:56","74","65.8","75.5","29.95","333","1.5","7.2","0.00","0.00"
"08:59:56","74.2","66","75.5","29.95","332","1","4.8","0.00","0.00"
"09:04:57","74.5","65.9","74.7","29.95","341","2.3","6","0.00","0.00"
"09:09:56","74.7","66.1","74.6","29.95","339","1.1","4.8","0.00","0.00"
"09:14:58","75.2","66.7","75.1","29.95","329","1.5","7.2","0.00","0.00"
"09:19:59","75.7","66.3","72.9","29.95","326","2.9","8.4","0.00","0.00"
"09:24:59","75.9","66.1","71.7","29.95","329","2.2","8.4","0.00","0.00"
"09:29:56","76.1","66.2","71.5","29.95","283","2.5","7.2","0.00","0.00"
"09:34:56","76.2","65.9","70.5","29.95","353","3.9","9.6","0.00","0.00"
"09:39:57","76.2","65.7","69.9","29.95","319","3.5","7.2","0.00","0.00"
"09:44:57","76.3","66.2","70.9","29.95","289","2.3","8.4","0.00","0.00"
"09:49:58","76.6","65.6","68.9","29.95","350","4.7","13.2","0.00","0.00"
"09:54:58","76.8","65.7","68.6","29.95","279","3.1","11.5","0.00","0.00"
"09:59:58","77.2","66.1","68.6","29.95","308","3.3","7.2","0.00","0.00"
"10:04:58","77.6","65.8","67","29.95","293","3.8","8.4","0.00","0.00"
"10:09:58","77.8","65.4","65.7","29.95","335","4.7","16.1","0.00","0.00"
"10:14:59","77.8","65.2","65.2","29.95","336","3.7","10.8","0.00","0.00"
"10:19:59","77.9","65.2","65.1","29.95","342","4.3","15","0.00","0.00"
"10:24:59","78.2","65.1","64.1","29.95","343","4.7","16.1","0.00","0.00"
"10:29:56","78.5","65.7","64.9","29.95","323","2.7","8.4","0.00","0.00"
"10:34:56","78.8","65.1","63","29.95","292","3.9","13.2","0.00","0.00"
"10:39:56","79","65.5","63.5","29.95","269","2.4","4.8","0.00","0.00"
"10:44:58","79","65.2","62.8","29.95","316","3","8.4","0.00","0.00"
"10:49:56","79.5","66","63.6","29.95","346","2.9","7.2","0.00","0.00"
"10:54:58","80.1","65.5","61.3","29.95","319","1.9","6","0.00","0.00"
"10:59:56","79.7","65","60.8","29.95","330","4.1","10.8","0.00","0.00"
"11:04:58","79.7","65.7","62.4","29.95","339","3.7","8.4","0.00","0.00"
"11:07:26","80.4","66.4","62.6","29.95","332","1","4.6","0.00","0.00"
"20:44:56","76","67.8","75.6","29.95","338","0","13.2","0.00","0.00"
"20:49:59","75.7","67.7","76.2","29.95","338","0","0","0.00","0.00"
"20:54:59","75.1","67.4","77","29.95","338","0","0","0.00","0.00"
"20:59:58","74.7","67.2","77.5","29.95","338","0","0","0.00","0.00"
"21:04:59","74.6","67.7","79","29.95","338","0","0","0.00","0.00"
"21:09:59","74.7","67.6","78.5","29.95","338","0","0","0.00","0.00"
"21:14:56","74.7","67.9","79.4","29.96","338","0","0","0.00","0.00"
"21:19:57","74.4","67.5","79","29.96","338","0","0","0.00","0.00"
"21:24:57","74.1","67.3","79.2","29.96","338","0","0","0.00","0.00"
"21:29:57","74","67.4","80","29.96","338","0","0","0.00","0.00"
"21:34:57","74","67.4","80","29.96","338","0","0","0.00","0.00"
"21:39:59","73.9","67.4","80.5","29.96","338","0","0","0.00","0.00"
"21:44:59","73.7","67.5","81","29.96","338","0","0","0.00","0.00"
"21:49:59","73.5","67.3","80.8","29.96","338","0.4","2.4","0.00","0.00"
"21:54:56","73.5","67.3","81","29.96","338","0.1","1.2","0.00","0.00"
"21:59:56","73.3","67.4","81.8","29.96","338","0","1.2","0.00","0.00"
"22:04:56","73","67.5","83","29.96","338","0.9","2.4","0.00","0.00"
"22:09:56","72.9","67.4","83","29.96","338","0.4","2.3","0.00","0.00"
"22:14:58","72.8","67.3","83","29.96","338","0","0","0.00","0.00"
"22:19:58","72.4","67.2","83.6","29.96","338","0.2","1.2","0.00","0.00"
"22:24:57","72.2","67.1","84","29.96","338","0.6","2.4","0.00","0.00"
"22:29:58","72","67.1","84.4","29.96","338","0.6","2.4","0.00","0.00"
"22:34:57","71.9","66.9","84.3","29.96","338","0","0","0.00","0.00"
"22:39:58","71.7","66.9","85","29.96","338","0","0","0.00","0.00"
"22:44:59","71.3","66.8","85.5","29.96","338","0","0","0.00","0.00"
"22:49:59","70.9","66.7","86.3","29.95","338","0","1.2","0.00","0.00"
"22:54:56","70.7","66.6","87","29.95","338","0","1.2","0.00","0.00"
"22:59:56","70.7","66.6","87","29.95","338","0","0","0.00","0.00"
"23:04:57","70.7","66.6","87","29.95","338","0","0","0.00","0.00"
"23:09:57","70.5","66.6","87.3","29.95","338","0","0","0.00","0.00"
"23:14:58","70.3","66.6","88","29.95","338","0","0","0.00","0.00"
"23:19:59","70","66.4","88.3","29.95","338","0","0","0.00","0.00"
"23:24:59","69.7","66.3","89","29.95","338","0","0","0.00","0.00"
"23:29:59","69.6","66.2","89","29.95","338","0","0","0.00","0.00"
"23:34:55","69.4","66.1","89.4","29.95","338","0","0","0.00","0.00"
"23:39:57","69.2","66.1","90","29.95","338","0","0","0.00","0.00"
"23:44:57","69","66.1","90.5","29.95","338","0","0","0.00","0.00"
